Location: B�ni Diakanda
(14.8523°N, 2.9563°W)
Time: 02:43:52
(UTC+00:00)

Daily predictions for brighter satellites

Satellite Brightness Start Highest point End
(mag) Time Altitude Azimuth Time Altitude Azimuth Time Altitude Azimuth
FALCON 9 R/B 4.5 03:26:16 32° SE 03:26:16 32° SE 03:34:11 10° SE
CZ-3 R/B 4.2 02:47:09 10° W 03:42:24 58° NNW 03:54:17 10° ENE
ATLAS 2AS CENTAUR R/B 3.0 04:12:39 77° E 04:12:39 77° E 04:20:17 10° NNE
Lacrosse 5 3.3 04:21:56 35° E 04:21:56 35° E 04:25:22 10° NE
ALOS 4.4 04:31:23 10° NE 04:35:12 25° E 04:39:01 10° SSE
BREEZE-M DEB 4.3 04:38:32 44° S 04:38:32 44° S 04:43:53 10° SSE
Cosmos 2074 Rocket 4.3 04:36:18 24° N 04:40:05 65° E 04:46:13 10° SSE
Meteor 1-24 Rocket 3.9 04:39:24 57° NNE 04:40:40 78° E 04:46:41 10° S
Cosmos 2219 3.2 04:47:47 64° SW 04:47:47 64° SW 04:52:53 10° S
Cosmos 2322 Rocket 3.8 04:42:41 10° SSE 04:47:40 33° ESE 04:52:40 10° NE
Sea Lan Dem Rocket 4.4 04:49:43 16° SSW 04:50:00 16° SSW 04:52:30 10° SSE
Cosmos 1953 4.1 04:48:08 10° S 04:49:49 24° S 04:49:49 24° S
Cosmos 2297 Rocket 2.0 04:57:10 53° NNW 04:58:33 83° WSW 05:04:11 10° SSE
Meteor 2-5 Rocket 4.4 05:02:47 37° SW 05:02:47 37° SW 05:07:02 10° SSW
Cosmos 923 Rocket 3.8 04:56:53 10° SSW 05:02:06 80° WNW 05:07:22 10° N
Ariane 42L Rocket 4.0 05:00:31 29° SSW 05:02:10 37° SSE 05:14:38 10° ESE
Cosmos 2227 Rocket 2.1 05:08:57 38° NW 05:11:04 69° WSW 05:16:40 10° S
Nadezhda 1 Rocket 4.2 05:05:25 10° SSW 05:11:06 41° W 05:11:15 41° W
Cosmos 44 3.9 05:12:56 34° SW 05:12:56 34° SW 05:16:34 10° S
Cosmos 1626 2.0 05:12:46 68° SW 05:12:46 68° SW 05:16:09 10° S
STARLINK 1061 4.4 05:09:59 10° SSW 05:13:59 51° SE 05:17:59 10° NE
METEOR-M 4.2 05:08:40 10° NNE 05:14:00 80° ESE 05:19:20 10° S
PSLV R/B 3.6 05:17:19 59° WSW 05:17:19 59° WSW 05:20:35 10° SSW
Cosmos 1602 Rocket 3.4 05:16:01 24° N 05:18:34 82° W 05:22:55 10° S
STARLINK 1067 4.1 05:14:55 10° SSW 05:18:58 60° SE 05:23:02 10° NE
RESURS DK-1 4.0 05:16:03 10° S 05:19:48 35° ESE 05:23:34 10° NE
MAQSAT/ARIANE V 3.9 05:15:20 20° WSW 05:19:51 32° SSW 05:22:56 10° SE
Cosmos 1726 1.9 05:18:25 10° S 05:22:06 86° W 05:25:46 10° N
STARLINK 1058 3.8 05:19:50 10° SSW 05:23:56 70° SE 05:28:02 10° NE
IUS-17 SRM-1 4.2 05:28:32 14° NNE 05:28:32 14° NNE 05:29:07 10° NNE
SL-16 R/B 2.1 05:21:59 10° SSW 05:27:37 73° WNW 05:33:16 10° NNE
Cosmos 2327 Rocket 4.4 05:22:30 10° NNW 05:28:35 64° W 05:34:35 10° S
STARLINK 1043 3.6 05:24:48 10° SSW 05:28:55 81° SE 05:33:02 10° NE
NOSS 3-4 (A) 4.1 05:28:53 28° WNW 05:29:12 28° WNW 05:34:16 10° N
NOSS 3-4 (C) 4.1 05:28:49 28° WNW 05:29:18 28° WNW 05:34:23 10° N
Ariane H10+ 4.4 05:18:14 14° WSW 05:29:45 38° SSW 05:34:08 10° SE
STARLINK 1065 3.5 05:29:43 10° SW 05:33:52 88° NW 05:37:59 10° NE
Cosmos 2360 Rocket 3.5 05:29:49 10° S 05:35:09 44° ESE 05:40:29 10° NNE
Cosmos 1758 Rocket 4.2 05:31:34 10° N 05:35:55 58° E 05:40:17 10° SSE
Meteosat 1 Rocket2 3.3 05:37:28 29° WNW 05:38:41 36° NNW 05:42:03 10° NE
STARLINK 1063 3.5 05:34:38 10° SW 05:38:45 77° NW 05:42:52 10° NNE
Cosmos 44 Rocket 4.1 05:34:38 10° N 05:39:15 49° ENE 05:43:56 10° SE
Cosmos 1626 Rocket 4.4 05:39:08 25° WNW 05:40:12 28° W 05:43:59 10° SSW
Meteor 1-16 Rocket 4.4 05:35:42 10° SSW 05:41:29 57° W 05:47:16 10° N
STARLINK 1064 3.5 05:39:40 10° SW 05:43:45 66° NW 05:47:51 10° NNE
Milstar 3 3.4 05:34:23 10° WSW 05:46:33 84° NNW 05:53:45 10° ENE
Skynet4D Del rocket 3.7 05:43:44 16° W 05:48:22 61° NNW 05:53:44 10° ENE
Cosmos 2058 Rocket 3.0 05:44:03 10° S 05:48:29 83° W 05:52:53 10° N
STARLINK 1041 3.6 05:44:43 10° SW 05:48:46 57° NW 05:52:49 10° NNE
Cosmos 158 Rocket 3.9 05:45:18 10° SSW 05:50:03 54° WNW 05:54:48 10° N
Cosmos 1908 3.1 05:46:30 10° SSW 05:50:22 67° W 05:54:15 10° N
Cosmos 1680 Rocket 4.2 05:46:13 10° SW 05:50:52 31° WNW 05:55:32 10° NNW
Okean O Rocket 1.5 05:47:12 10° N 05:51:34 67° WNW 05:55:55 10° SSW
FENGYUN 3A 4.1 05:46:42 10° N 05:51:40 38° WNW 05:56:39 10° SW
H-2A R/B 4.2 05:49:59 10° NNE 05:53:39 42° E 05:57:16 10° S
STARLINK 1038 3.8 05:49:43 10° SW 05:53:43 49° NW 05:57:43 10° NNE
SWAS 4.4 05:50:00 10° NNW 05:54:14 72° WSW 05:58:27 10° S
CZ-4B R/B 3.1 05:51:02 10° N 05:56:25 68° WNW 06:01:43 10° SSW
BREEZE-M DEB (TANK) 4.4 05:57:35 15° NW 05:58:07 15° NW 06:00:22 10° N
STARLINK 1046 4.0 05:54:47 10° SW 05:58:42 42° NW 06:02:38 10° NNE
Cosmos 1825 Rocket 3.5 05:56:03 10° N 06:00:23 75° W 06:04:45 10° S
GPS 2-17 Rocket1 3.0 05:58:29 14° WNW 06:02:21 87° N 06:06:49 10° ESE
Lacrosse 5 3.4 06:01:20 12° W 06:03:32 16° NW 06:06:34 10° NNW
STARLINK 1039 4.1 05:59:49 10° WSW 06:03:38 37° NW 06:07:29 10° NNE
ATLAS 2AS CENTAUR R/B 4.4 06:00:21 11° W 06:03:48 15° WNW 06:07:58 10° NNW
COSMO-SKYMED 1 2.7 05:59:40 10° S 06:03:54 55° W 06:08:08 10° NNW
Cosmos 1726 Rocket 4.5 06:00:26 10° SW 06:04:14 28° W 06:08:01 10° NNW
Cosmos 482 Debris 3.2 06:02:26 10° SW 06:05:37 84° SE 06:07:46 10° NE
Delta 2 Rocket 4.4 06:03:24 12° W 06:05:43 22° SW 06:08:21 10° SSE
GPS 2-15 Rocket1 3.4 06:04:05 11° W 06:08:22 53° N 06:12:54 10° ENE
STARLINK 1045 4.3 06:04:58 10° WSW 06:08:41 32° NW 06:12:24 10° NNE
NOAA 6 4.4 06:05:01 10° N 06:09:50 41° WNW 06:14:40 10° SW
ALOS 3.6 06:09:19 10° NNW 06:12:19 17° WNW 06:15:20 10° WSW
STARLINK-46 3.9 06:16:03 10° N 06:17:49 25° NE 06:19:35 10° ESE
Milstar 3 Cent rocket 4.2 06:04:51 10° W 06:19:58 45° NNW 06:27:19 10° NE
